Location: Austin
(30.3000°N, 97.7500°W)
Time: 11:27:12
(UTC-05:00)

Cosmos 2218 Rocket - Pass Details

Date: 26 May 2023
Orbit: 954 x 1007 km, 82.9° (Epoch: 30 May)

Event Time Altitude Azimuth Distance (km) Brightness Sun altitude
Exits shadow 23:08:47 59° 69° (ENE) 1,112 4.1 -28.5°
Drops below altitude 10° 23:14:21 10° 14° (NNE) 2,707 6.8 -29.2°
Sets 23:16:52 0° 11° (N) 3,650 7.6 -29.6°
